TimeCET,TemperatureF,Dew PointF,Humidity,Sea Level PressureIn,VisibilityMPH,Wind Direction,Wind SpeedMPH,Gust SpeedMPH,PrecipitationIn,Events,Conditions,WindDirDegrees,DateUTC
12:00 AM,30.2,26.6,86,30.04,6.2,WNW,8.1,-,N/A,,Overcast,300,2013-03-21 23:00:00
1:00 AM,30.2,26.6,86,30.04,6.2,NW,10.4,-,N/A,,Overcast,310,2013-03-22 00:00:00
2:00 AM,30.2,26.6,86,30.04,6.2,WNW,9.2,-,N/A,,Overcast,300,2013-03-22 01:00:00
3:00 AM,30.2,26.6,86,30.04,6.2,WNW,10.4,-,N/A,,Mostly Cloudy,300,2013-03-22 02:00:00
4:00 AM,30.2,26.6,86,30.04,6.2,WNW,9.2,-,N/A,,Overcast,300,2013-03-22 03:00:00
5:00 AM,28.4,26.6,93,30.04,-9999.0,WNW,10.4,-,N/A,,Clear,300,2013-03-22 04:00:00
6:00 AM,28.4,26.6,93,30.04,6.2,WNW,9.2,-,N/A,Snow,Light Snow,300,2013-03-22 05:00:00
7:00 AM,28.4,26.6,93,30.04,6.2,NW,11.5,-,N/A,Snow,Light Snow,310,2013-03-22 06:00:00
8:00 AM,28.4,26.6,93,30.04,6.2,NW,13.8,-,N/A,Snow,Light Snow,310,2013-03-22 07:00:00
9:00 AM,30.2,24.8,80,30.06,6.2,NW,15.0,-,N/A,Snow,Light Snow,310,2013-03-22 08:00:00
10:00 AM,30.2,24.8,80,30.06,6.2,NNW,11.5,-,N/A,,Mostly Cloudy,330,2013-03-22 09:00:00
11:00 AM,30.2,23.0,75,30.06,6.2,WNW,13.8,-,N/A,,Mostly Cloudy,290,2013-03-22 10:00:00
12:00 PM,32.0,21.2,64,30.06,6.2,WNW,9.2,-,N/A,,Mostly Cloudy,290,2013-03-22 11:00:00
1:00 PM,33.8,23.0,65,30.06,6.2,NW,8.1,-,N/A,,Mostly Cloudy,310,2013-03-22 12:00:00
2:00 PM,33.8,23.0,65,30.04,6.2,NNW,9.2,-,N/A,,Mostly Cloudy,330,2013-03-22 13:00:00
3:00 PM,33.8,24.8,70,30.04,6.2,WNW,12.7,-,N/A,,Mostly Cloudy,300,2013-03-22 14:00:00
4:00 PM,32.0,26.6,80,30.04,6.2,NE,6.9,-,N/A,Snow,Light Snow,40,2013-03-22 15:00:00
5:00 PM,30.2,30.2,100,30.06,4.3,East,4.6,-,N/A,Snow,Light Snow,90,2013-03-22 16:00:00
6:00 PM,30.2,28.4,93,30.06,1.6,Variable,1.2,-,N/A,Snow,Light Snow,0,2013-03-22 17:00:00
6:25 PM,30.2,24.8,80,30.06,6.2,ENE,8.1,-,N/A,,Overcast,60,2013-03-22 17:25:00
7:00 PM,30.2,23.0,75,30.09,6.2,ENE,8.1,-,N/A,,Overcast,60,2013-03-22 18:00:00
8:00 PM,28.4,21.2,74,30.09,6.2,ENE,9.2,-,N/A,,Overcast,70,2013-03-22 19:00:00
9:00 PM,28.4,23.0,80,30.09,6.2,NE,5.8,-,N/A,,Overcast,50,2013-03-22 20:00:00
10:00 PM,28.4,23.0,80,30.09,6.2,ENE,8.1,-,N/A,,Overcast,60,2013-03-22 21:00:00
11:00 PM,28.4,21.2,74,30.09,6.2,NE,6.9,-,N/A,,Overcast,50,2013-03-22 22:00:00